星链-5617 (STARLINK-5617 )

导读

STARLINK-5617是美国SpaceX公司星链星座的第二代卫星,于2023年3月3日发射入轨。星链项目旨在构建全球低轨卫星互联网,截至2025年底,已有超9300颗星链卫星在轨运行,服务覆盖全球155个国家和地区。作为星链组网的重要组成部分,STARLINK-5617为星座规模扩张与全球网络覆盖提供支撑,助力实现高速、低延迟的全球卫星互联网服务,在民用通信、应急救援等领域发挥作用。

基本信息
目录编号:
55753
目录名称:
STARLINK-5617
国际标识:
2023-028N
轨道中心:
EARTH
卫星名称:
星链-5617
卫星全名:
星链-5617 (STARLINK-5617 )
卫星状态:
在轨 (已飞行1200 天)
发射日期:
2023-03-03 UTC
国别 :
美国 (US)
星等 :
--
轨道信息
数据来源 国际轨道数据
星历时间: 2026-06-15T04:13:59+0800
6小时前
查看轨道信息
半长轴: 6950.171km
偏心率: 0.0003045
轨道倾角: 69.999°
近地点辐角 269.768°
升交点赤经 359.466°
平近点角 90.313°
近地点: 569.917km
远地点: 574.151km
周期: 96.107分钟
每日圈数: 14.983372
详细信息
固有亮度:
5
最大亮度:
2.5
卫星平台:
Starlink v1.5
覆盖范围:
全球
运营商:
太空探索技术公司
运营商所在国:
美国
制造商(研发单位):
太空探索技术公司
制造商所在国:
美国
使用方式:
暂无
卫星简介
星链(Starlink)计划是由太空探索技术公司(SpaceX)提出的一个巨型低轨卫星互联网星座项目,计划在2019年至2024年间在太空搭建由约1.2万颗卫星组成的“星链”网络,其中1584颗将部署在地球上空550千米处的近地轨道,并从2020年开始工作。该卫星仍在工作。
2D轨道图
3D轨道图
轨道高度分析图
轨道倾角分析图
轨道综合分析图
查看轨道综合分析图